Prairie Du Chien, WI

4:31 AM CDT on August 25, 2016 (GMT -0500)
Prairie Du Chien Municipal

Weather History for KPDC - January, 2014

Change the Weather History Date:

Sunday, January 26, 2014

  Actual Average Record
Temperature  
Mean Temperature 12 °F -  
Max Temperature 25 °F 27 °F 60 °F (2002)
Min Temperature 0 °F 5 °F -22 °F (1963)
Degree Days  
Heating Degree Days 52    
Moisture  
Dew Point 6 °F    
Average Humidity 74    
Maximum Humidity 85    
Minimum Humidity 57    
Precipitation  
Precipitation 0.00 in - - ()
Sea Level Pressure  
Sea Level Pressure 29.57 in    
Wind  
Wind Speed 11 mph (West)    
Max Wind Speed 33 mph    
Max Gust Speed 48 mph    
Visibility 6 miles    
Events Snow    
Averages and records for this station are not official NWS values.
T = Trace of Precipitation, MM = Missing Value Source: NWS Daily Summary

Daily Weather History Graph

Daily Weather History Graph

Search for Another Location

Airport or City:

Trip Planner

Search our weather history database for the weather conditions in past years. The results will help you decide how hot, cold, wet, or windy it might be!

Date:

Astronomy

Jan. 26, 2014 Rise Set
Actual Time 7:25 AM CST 5:09 PM CST
Civil Twilight 6:54 AM CST 5:39 PM CST
Nautical Twilight 6:20 AM CST 6:14 PM CST
Astronomical Twilight 5:46 AM CST 6:47 PM CST
Moon 3:03 AM CST (1/26) 12:58 PM CST (1/26)
Length of Visible Light 10h 45m
Length of Day
9h 43m
Waning Crescent, 23% of the Moon is Illuminated
Jan 26
Waning Crescent
Jan 30
New
Feb 6
First Quarter
Feb 14
Full
Feb 22
Last Quarter

Hourly Weather History & Observations

Time (CST) Temp. Windchill Dew Point Humidity Pressure Visibility Wind Dir Wind Speed Gust Speed Precip Events Conditions
12:15 AM 7.7 °F -2.4 °F 3.2 °F 82% 29.63 in 1.2 mi SE 5.8 mph - N/A Snow Light Snow
12:35 AM 7.7 °F - 3.4 °F 83% 29.65 in 1.0 mi Calm Calm - N/A Snow Snow
12:55 AM 7.7 °F 1.0 °F 4.1 °F 85% 29.63 in 0.8 mi ESE 3.5 mph - N/A Snow Snow
1:15 AM 7.7 °F -2.4 °F 4.1 °F 85% 29.61 in 0.8 mi East 5.8 mph - N/A Snow Snow
1:35 AM 7.9 °F -3.5 °F 4.1 °F 85% 29.58 in 1.0 mi East 6.9 mph - N/A Snow Snow
1:55 AM 8.2 °F -3.0 °F 4.1 °F 83% 29.56 in 1.5 mi East 6.9 mph - N/A Snow Light Snow
2:15 AM 8.4 °F -2.8 °F 4.5 °F 84% 29.53 in 1.8 mi ESE 6.9 mph - N/A Snow Light Snow
2:35 AM 8.6 °F -4.7 °F 4.8 °F 85% 29.51 in 1.2 mi ESE 9.2 mph - N/A Snow Light Snow
2:55 AM 9.1 °F -0.7 °F 4.8 °F 83% 29.51 in 2.5 mi ESE 5.8 mph - N/A Snow Light Snow
3:15 AM 9.3 °F -5.4 °F 4.6 °F 81% 29.48 in 2.5 mi ESE 11.5 mph - N/A Snow Light Snow
3:35 AM 9.5 °F -3.5 °F 4.8 °F 81% 29.46 in 10.0 mi East 9.2 mph - N/A   Overcast
3:55 AM 10.2 °F -0.6 °F 5.4 °F 81% 29.45 in 10.0 mi ESE 6.9 mph - N/A   Overcast
4:15 AM 10.6 °F -0.2 °F 5.5 °F 80% 29.43 in 10.0 mi ESE 6.9 mph - N/A   Overcast
4:35 AM 10.8 °F -2.0 °F 5.5 °F 79% 29.43 in 7.0 mi ESE 9.2 mph - N/A   Overcast
4:55 AM 10.9 °F -2.6 °F 5.9 °F 80% 29.42 in 5.0 mi East 10.4 mph - N/A Snow Light Snow
5:15 AM 11.3 °F 3.3 °F 6.1 °F 80% 29.43 in 4.0 mi East 4.6 mph - N/A Snow Light Snow
5:35 AM 11.5 °F 5.3 °F 6.4 °F 80% 29.43 in 7.0 mi ESE 3.5 mph - N/A Snow Light Snow
5:55 AM 11.8 °F 3.9 °F 6.8 °F 80% 29.41 in 7.0 mi ESE 4.6 mph - N/A   Overcast
6:15 AM 12.0 °F 4.1 °F 6.8 °F 80% 29.42 in 10.0 mi ESE 4.6 mph - N/A   Overcast
6:35 AM 12.2 °F 6.1 °F 6.8 °F 79% 29.41 in 10.0 mi ESE 3.5 mph - N/A   Overcast
6:55 AM 12.2 °F 6.1 °F 7.2 °F 80% 29.40 in 10.0 mi ESE 3.5 mph - N/A   Overcast
7:15 AM 12.6 °F - 7.3 °F 80% 29.41 in 10.0 mi Calm Calm - N/A   Overcast
7:35 AM 12.7 °F - 7.7 °F 80% 29.42 in 10.0 mi Calm Calm - N/A   Overcast
7:55 AM 12.9 °F - 7.5 °F 79% 29.42 in 10.0 mi Calm Calm - N/A   Overcast
8:15 AM 12.9 °F - 7.7 °F 80% 29.41 in 10.0 mi Calm Calm - N/A   Overcast
8:35 AM 13.8 °F - 8.8 °F 80% 29.41 in 10.0 mi Calm Calm - N/A   Overcast
8:55 AM 14.4 °F - 9.3 °F 80% 29.43 in 10.0 mi Calm Calm - N/A   Overcast
9:15 AM 15.4 °F - 10.2 °F 80% 29.43 in 10.0 mi Calm Calm - N/A   Overcast
9:35 AM 16.5 °F - 11.3 °F 80% 29.43 in 10.0 mi Calm Calm - N/A   Overcast
9:55 AM 22.8 °F 7.7 °F 16.7 °F 77% 29.42 in 10.0 mi West 20.7 mph 27.6 mph N/A   Overcast
10:15 AM 24.6 °F 10.9 °F 16.5 °F 71% 29.42 in 10.0 mi West 18.4 mph 27.6 mph N/A   Mostly Cloudy
10:35 AM 24.8 °F 14.6 °F 16.2 °F 70% 29.42 in 10.0 mi West 10.4 mph 24.2 mph N/A   Scattered Clouds
10:55 AM 25.5 °F 14.3 °F 16.5 °F 69% 29.44 in 10.0 mi West 12.7 mph - N/A   Mostly Cloudy
11:15 AM 24.6 °F 10.1 °F 15.8 °F 69% 29.43 in 10.0 mi WNW 20.7 mph 28.8 mph N/A   Scattered Clouds
11:35 AM 25.2 °F 12.4 °F 16.5 °F 70% 29.45 in 10.0 mi West 16.1 mph - N/A   Mostly Cloudy
11:55 AM 24.6 °F 13.2 °F 15.6 °F 69% 29.45 in 10.0 mi West 12.7 mph 24.2 mph N/A   Mostly Cloudy
12:15 PM 23.9 °F 9.9 °F 14.5 °F 67% 29.44 in 10.0 mi WNW 18.4 mph 28.8 mph N/A   Mostly Cloudy
12:35 PM 24.4 °F 10.2 °F 15.4 °F 69% 29.45 in 10.0 mi West 19.6 mph 27.6 mph N/A   Overcast
12:55 PM 23.9 °F 10.3 °F 15.8 °F 71% 29.46 in 10.0 mi West 17.3 mph 26.5 mph N/A   Overcast
1:15 PM 24.4 °F 12.4 °F 16.0 °F 70% 29.45 in 10.0 mi WNW 13.8 mph 24.2 mph N/A   Overcast
1:35 PM 23.9 °F 8.4 °F 15.6 °F 71% 29.45 in 7.0 mi West 23.0 mph 29.9 mph N/A   Overcast
1:55 PM 23.9 °F 9.1 °F 15.6 °F 71% 29.46 in 5.0 mi West 20.7 mph 32.2 mph N/A   Haze
2:15 PM 23.7 °F 9.7 °F 14.9 °F 69% 29.47 in 7.0 mi West 18.4 mph 27.6 mph N/A   Overcast
2:35 PM 23.0 °F 9.6 °F 14.4 °F 70% 29.47 in 5.0 mi West 16.1 mph 25.3 mph N/A   Overcast
2:55 PM 23.0 °F 10.1 °F 15.1 °F 72% 29.48 in 5.0 mi West 15.0 mph 18.4 mph N/A Snow Light Snow
3:15 PM 22.6 °F 10.7 °F 16.7 °F 78% 29.48 in 1.2 mi West 12.7 mph 18.4 mph N/A Snow Light Snow
3:35 PM 22.3 °F 8.7 °F 16.3 °F 78% 29.48 in 2.0 mi West 16.1 mph 23.0 mph N/A Snow Light Snow
3:55 PM 22.1 °F 7.6 °F 16.7 °F 80% 29.48 in 2.5 mi WNW 18.4 mph 23.0 mph N/A Snow Light Snow
4:15 PM 22.1 °F 5.1 °F 16.2 °F 78% 29.51 in 1.2 mi West 26.5 mph 33.4 mph N/A   Overcast
4:35 PM 20.8 °F 3.4 °F 14.7 °F 77% 29.53 in 0.5 mi WNW 26.5 mph 40.3 mph N/A   Overcast
4:55 PM 20.1 °F 1.8 °F 10.9 °F 68% 29.54 in 1.5 mi WNW 28.8 mph 40.3 mph N/A   Overcast
5:15 PM 17.4 °F -3.0 °F 7.5 °F 65% 29.59 in 0.5 mi WNW 33.4 mph 48.3 mph N/A   Overcast
5:35 PM 14.5 °F -6.1 °F 3.7 °F 62% 29.63 in 1.0 mi WNW 29.9 mph 46.0 mph N/A Snow Light Snow
5:55 PM 14.0 °F -4.3 °F 1.9 °F 59% 29.64 in 2.5 mi West 21.9 mph 35.7 mph N/A   Clear
6:15 PM 12.2 °F -8.6 °F -0.4 °F 57% 29.65 in 1.5 mi WNW 27.6 mph 43.7 mph N/A Snow Light Snow
6:35 PM 11.1 °F -8.9 °F -1.1 °F 58% 29.67 in 2.5 mi West 24.2 mph 39.1 mph N/A Snow Light Snow
6:55 PM 8.4 °F -14.4 °F -0.6 °F 67% 29.69 in 1.2 mi West 29.9 mph 40.3 mph N/A   Scattered Clouds
7:15 PM 7.0 °F -14.0 °F -0.6 °F 71% 29.72 in 2.0 mi West 23.0 mph 41.4 mph N/A   Overcast
7:35 PM 6.3 °F -15.8 °F -0.9 °F 72% 29.74 in 2.0 mi WNW 25.3 mph 32.2 mph N/A   Overcast
7:55 PM 5.2 °F -17.3 °F -3.5 °F 68% 29.76 in 1.2 mi WNW 25.3 mph 42.6 mph N/A   Overcast
8:15 PM 4.1 °F -20.6 °F -4.7 °F 67% 29.78 in 1.5 mi WNW 31.1 mph 46.0 mph N/A   Mostly Cloudy
8:35 PM 3.2 °F -18.1 °F -5.8 °F 66% 29.81 in 1.8 mi WNW 20.7 mph 35.7 mph N/A   Overcast
8:55 PM 2.8 °F -18.1 °F -4.9 °F 70% 29.84 in 5.0 mi WNW 19.6 mph 26.5 mph N/A   Haze
9:15 PM 2.3 °F -21.1 °F -6.7 °F 66% 29.85 in 5.0 mi WNW 25.3 mph 39.1 mph N/A   Haze
9:35 PM 2.3 °F -20.2 °F -6.3 °F 67% 29.87 in 3.0 mi WNW 23.0 mph 33.4 mph N/A   Haze
9:55 PM 1.9 °F -19.2 °F -6.2 °F 69% 29.90 in 5.0 mi WNW 19.6 mph 31.1 mph N/A   Haze
10:15 PM 1.6 °F -20.2 °F -6.7 °F 68% 29.92 in 7.0 mi WNW 20.7 mph 24.2 mph N/A   Overcast
10:35 PM 1.4 °F -21.9 °F -8.0 °F 65% 29.93 in 7.0 mi WNW 24.2 mph 29.9 mph N/A   Overcast
10:55 PM 1.0 °F -19.3 °F -8.1 °F 65% 29.96 in 7.0 mi WNW 17.3 mph 28.8 mph N/A   Overcast
11:15 PM 0.5 °F -23.5 °F -8.1 °F 67% 29.96 in 7.0 mi WNW 25.3 mph 29.9 mph N/A   Overcast
11:35 PM 0.3 °F -21.4 °F -8.5 °F 66% 29.99 in 7.0 mi WNW 19.6 mph 31.1 mph N/A   Overcast
11:55 PM -0.4 °F -23.8 °F -9.4 °F 66% 29.99 in 7.0 mi WNW 23.0 mph 29.9 mph N/A   Overcast